Temperature
16 16 16 16 16 16 16 16 16 15 15 15 15 15 15 15 15 15 15 15 15 15 15 15 15 15 15 14 14 14 14 14 14 14 13 13 13 13
16 16 16 16 16 16 16 16 16 15 15 15 15 15 15 15 15 15 15 14 14 14 14 14 14 14 14 14 14 14 14 13 13 13 13 13 13 13
16 16 15 15 16 15 15 15 15 15 15 15 14 14 14 14 14 14 14 14 14 13 13 13 13 13 13 13 13 13 13 13 13 12 12 12 12 12
15 15 15 15 15 15 15 15 15 15 15 14 14 14 14 14 14 14 13 13 13 13 13 13 13 13 13 12 12 12 12 12 12 12 12 12 12 11
15 15 15 15 15 15 15 15 14 14 14 14 14 13 13 13 13 13 13 13 12 12 12 12 12 12 12 12 12 12 11 11 11 11 11 11 11 11
15 15 14 14 14 14 14 14 14 14 14 13 13 13 13 13 13 12 12 12 12 11 11 11 11 11 11 11 11 11 11 11 11 10 10 10 10 10
14 14 14 14 14 14 14 14 14 13 13 13 13 12 12 12 12 12 11 11 11 11 11 11 10 10 10 10 10 10 10 10 10 10 10 10 9 9
14 14 14 13 13 13 13 13 13 13 13 13 12 12 12 11 11 11 11 11 11 10 10 10 10 10 10 9 9 9 9 9 9 9 9 9 9 9
13 13 13 13 13 13 13 13 12 12 12 12 12 11 11 11 11 11 11 11 10 10 10 10 9 9 9 9 9 9 8 8 8 8 8 8 8 8
13 12 12 12 12 12 12 12 12 12 11 11 11 11 11 10 10 10 10 10 10 9 9 9 9 9 9 8 8 8 8 8 8 8 8 8 7 7
12 12 12 11 11 11 12 12 11 11 11 11 10 10 10 10 10 10 10 10 9 9 9 9 8 8 8 8 8 8 8 7 7 7 7 7 7 7
12 11 11 11 11 11 11 11 11 10 10 10 10 10 9 9 9 9 9 9 9 8 8 8 8 8 7 7 7 7 7 7 7 7 7 7 6 6
11 11 10 10 10 10 10 10 10 10 10 10 9 9 9 9 9 8 8 8 8 8 8 8 8 7 7 7 7 7 7 7 7 7 6 6 6 6
10 10 10 10 10 10 10 9 9 9 9 9 9 9 9 8 8 8 8 8 8 8 8 8 7 7 7 7 7 7 7 6 6 6 6 6 6 6
10 10 9 9 9 9 9 9 9 9 9 9 8 8 8 8 8 8 8 8 7 7 7 7 7 7 7 7 7 6 6 6 6 6 6 6 6 6
10 9 9 9 9 9 9 9 9 9 8 8 8 8 8 8 7 7 7 7 7 7 7 7 7 7 7 7 7 6 6 6 6 6 6 6 6 6
9 9 9 9 9 8 8 8 8 8 8 8 8 8 7 7 7 7 7 7 7 7 7 7 7 7 7 7 6 6 6 6 6 6 6 6 6 5
9 9 8 8 8 8 8 8 8 7 7 7 7 7 7 7 7 7 7 7 7 7 6 6 6 7 6 6 6 6 6 6 6 6 5 5 5 5
8 8 8 8 8 7 7 7 7 7 7 7 7 7 7 7 7 6 6 6 6 6 6 6 6 6 6 6 6 6 6 6 5 5 5 5 5 5
8 8 7 7 7 7 7 7 7 7 7 7 7 7 6 6 6 6 6 6 6 6 6 6 6 6 6 6 6 6 6 5 5 5 5 5 5 5
7 7 7 7 7 7 7 7 7 6 6 6 6 6 6 6 6 6 6 6 6 6 6 6 6 6 6 6 5 5 5 5 5 5 5 5 5 5
7 7 7 7 7 7 6 6 6 6 6 6 6 6 6 6 6 6 6 6 5 5 5 5 5 5 5 5 5 5 5 5 5 5 5 5 5 4
7 7 7 6 6 6 6 6 6 6 6 6 6 6 6 6 5 5 5 5 5 5 5 5 5 5 5 5 5 5 5 5 5 5 5 5 5 4
Wind_Speed
1 1 1 1 2 2 2 3 3 2 2 1 1 1 1 1 2 1 2 3 2 2 1 1 1 1 0 1 1 1 2 4 4 5 5 6 7 8
0 0 0 1 1 1 1 1 2 3 2 1 0 1 2 2 4 4 5 6 7 6 6 6 5 5 4 4 3 3 3 2 1 1 1 2 3 3
0 0 0 0 0 0 0 1 1 2 2 0 1 2 2 3 4 5 6 7 8 10 9 9 8 8 7 6 6 5 4 4 3 2 2 1 2 2
1 1 1 1 1 1 1 1 1 1 2 1 1 2 2 3 4 4 5 6 7 11 12 12 12 12 11 10 8 8 7 6 6 6 4 4 5 4
2 1 1 1 1 1 2 2 1 2 2 2 1 1 1 2 3 4 6 5 7 9 11 12 13 13 12 11 10 9 8 7 7 7 6 6 6 6
4 3 3 2 2 2 2 3 3 4 3 3 2 2 2 2 3 3 4 4 4 6 8 9 10 11 12 11 10 9 9 8 8 9 9 8 8 8
6 6 6 7 7 5 4 4 4 4 4 3 3 2 2 2 1 1 2 3 4 4 4 5 6 7 8 9 9 10 10 10 9 9 9 9 9 9
5 5 6 7 8 10 10 9 7 5 4 3 2 2 1 1 1 2 2 2 2 3 2 3 4 4 5 6 9 9 9 9 9 9 9 9 8 8
6 5 5 7 7 7 9 11 11 10 7 4 4 2 1 1 2 2 2 2 2 1 1 2 3 3 5 6 8 8 8 8 8 8 8 8 8 8
7 6 6 7 7 6 8 8 8 8 7 6 5 4 4 3 2 2 3 3 3 3 2 2 2 2 4 5 7 7 7 7 7 6 6 7 7 7
8 8 8 7 9 8 8 8 8 7 10 13 12 11 11 10 6 4 4 4 3 2 3 2 2 2 2 3 6 8 7 7 6 5 5 5 5 5
7 8 11 10 10 9 7 6 7 5 6 7 8 9 9 10 10 5 3 3 2 1 2 1 1 1 1 2 3 5 5 5 5 5 4 4 3 3
6 6 7 10 11 10 8 6 5 5 5 6 5 6 6 6 6 6 4 2 2 1 1 1 1 1 1 1 2 3 3 3 4 4 4 3 2 1
5 4 6 10 11 11 8 8 8 7 5 5 5 5 4 4 4 5 5 5 3 1 0 0 0 0 0 1 1 2 3 3 3 2 3 3 2 1
5 7 8 9 9 9 10 10 7 5 5 5 4 4 3 3 3 3 5 6 6 5 4 2 1 0 0 1 1 1 2 2 2 2 2 2 2 1
6 7 9 10 8 8 7 7 6 5 4 4 3 3 3 4 4 4 3 4 3 4 6 5 3 0 0 1 1 1 2 2 2 2 2 2 2 2
5 5 5 5 5 6 5 5 5 4 4 3 3 4 4 4 4 4 3 3 3 3 4 4 5 3 1 1 1 2 2 3 3 2 2 3 3 3
6 4 4 4 4 4 4 4 4 4 3 3 3 3 3 3 3 3 3 3 3 3 3 3 3 3 3 2 2 2 2 3 3 2 2 2 3 3
5 4 3 3 2 2 3 3 3 3 3 3 3 2 2 2 2 3 3 3 3 3 3 2 2 2 3 4 3 2 2 3 2 2 2 2 4 4
3 3 2 2 2 2 2 2 2 3 3 2 2 2 2 2 2 2 2 3 3 3 3 3 2 2 2 3 3 3 3 3 2 3 3 3 3 5
2 2 1 1 1 1 1 1 2 2 2 2 2 2 2 2 2 2 2 3 3 3 4 4 5 5 3 2 3 4 3 4 4 3 3 3 3 3
1 1 1 1 1 1 1 1 2 2 2 2 2 2 2 2 2 2 2 3 3 3 4 4 4 3 2 2 4 4 4 4 5 5 5 5 3 3
1 1 1 0 0 0 1 1 1 2 2 2 2 2 2 2 2 2 2 2 3 3 4 4 4 3 3 2 3 4 5 5 4 4 4 6 7 9
Wind_Direction
249 236 233 258 240 235 222 207 203 230 273 293 307 353 356 38 17 54 58 41 31 16 5 342 327 322 40 42 346 300 273 255 249 249 256 262 263 262
180 141 263 274 254 242 221 224 208 204 226 273 296 348 22 54 50 67 65 56 53 53 55 56 58 61 62 64 65 55 38 17 297 236 240 271 278 286
55 96 305 323 33 335 143 142 168 173 188 293 33 20 36 44 43 57 62 59 54 53 54 53 52 52 51 52 52 48 43 47 59 69 62 63 51 35
25 44 357 357 28 29 102 112 121 143 164 162 31 29 39 46 57 61 59 61 62 55 54 53 53 52 52 50 50 52 51 51 54 57 59 68 70 59
45 47 12 40 39 46 82 87 87 92 107 122 65 39 50 49 58 59 56 49 56 51 52 51 51 51 51 50 49 48 48 55 62 64 66 65 64 58
51 54 47 52 51 60 75 75 87 90 93 99 87 61 56 42 57 56 55 48 47 44 48 51 49 49 47 45 45 44 47 54 63 67 68 64 63 60
55 54 58 66 71 75 83 81 92 95 94 93 85 67 58 67 59 51 77 66 56 35 37 42 43 44 39 39 44 48 52 53 56 62 64 64 64 62
59 56 60 60 66 72 75 75 81 96 103 99 88 85 64 66 73 82 83 73 50 18 34 35 37 37 33 40 44 51 56 57 57 59 61 61 62 58
58 56 63 59 62 69 68 64 60 61 73 96 91 68 58 42 84 82 78 79 79 32 40 44 31 31 23 30 37 48 50 53 60 63 62 61 61 58
56 60 64 56 58 71 77 71 63 54 56 66 73 60 57 59 82 97 98 89 76 50 35 49 26 19 15 22 29 36 43 50 56 58 57 56 56 59
54 56 63 63 55 67 78 77 68 55 60 67 70 68 66 65 72 83 79 84 67 40 24 37 22 15 15 23 24 30 36 41 43 46 49 52 52 55
56 53 55 62 59 63 75 79 75 58 61 60 54 53 57 57 56 60 83 85 75 46 15 26 16 16 18 6 5 15 26 27 23 22 29 40 43 53
65 55 50 60 64 63 66 70 75 77 71 68 60 50 47 44 39 38 45 70 77 53 355 20 47 27 27 331 339 353 8 9 9 9 9 17 21 51
76 65 61 65 65 61 62 63 69 73 72 65 55 41 34 28 19 23 37 47 51 42 277 132 119 176 119 351 327 335 343 354 1 358 4 13 24 25
81 79 74 68 63 59 56 58 60 65 67 63 51 33 17 9 16 20 27 34 41 42 43 42 49 119 227 243 287 307 321 329 338 340 343 346 339 343
76 70 69 65 62 56 51 50 52 57 66 63 46 27 21 29 30 21 19 13 25 18 18 25 27 41 253 274 260 301 311 311 323 325 323 316 319 305
92 72 62 58 54 48 46 43 42 45 49 45 47 40 30 29 24 18 17 15 16 3 1 4 11 17 305 261 285 315 325 325 324 326 313 311 308 299
91 79 69 63 58 49 43 37 33 32 28 31 37 34 26 19 16 15 17 16 9 357 355 351 356 9 9 353 255 281 310 311 315 314 303 307 314 315
86 84 78 67 53 45 39 34 25 18 22 32 31 21 17 19 17 9 5 1 354 346 343 344 350 357 349 339 325 259 270 293 303 303 298 290 293 303
80 88 79 64 49 37 32 30 25 22 26 26 20 13 9 9 7 0 356 351 343 339 340 341 337 322 296 299 300 308 282 266 282 294 303 300 292 290
92 86 83 75 56 40 32 32 33 26 15 12 8 3 356 354 351 346 342 339 340 339 334 326 316 303 285 275 302 320 323 295 263 264 280 294 305 306
123 114 95 85 73 57 37 27 21 11 5 2 351 345 342 340 336 336 339 337 331 325 318 319 327 333 333 318 315 319 323 333 327 303 265 248 271 296
177 172 168 152 129 76 41 20 10 356 346 339 336 334 334 333 331 337 337 335 332 333 333 332 337 337 329 319 314 314 319 325 330 332 329 319 284 276
Height
1547 1547 1548 1548 1548 1549 1548 1549 1549 1548 1548 1549 1550 1550 1550 1550 1549 1549 1548 1548 1547 1546 1545 1544 1544 1543 1543 1542 1542 1542 1542 1542 1543 1543 1544 1544 1544 1544
1545 1545 1545 1545 1545 1546 1545 1545 1546 1546 1546 1546 1547 1548 1547 1547 1547 1546 1546 1545 1544 1543 1542 1541 1540 1540 1539 1538 1538 1538 1538 1537 1537 1537 1538 1538 1539 1539
1543 1543 1543 1543 1543 1543 1543 1543 1543 1544 1543 1544 1545 1546 1545 1545 1545 1544 1544 1543 1542 1541 1540 1539 1538 1537 1536 1535 1535 1534 1534 1533 1533 1533 1533 1533 1534 1534
1541 1541 1541 1541 1541 1541 1541 1541 1542 1542 1542 1542 1543 1544 1544 1544 1543 1543 1542 1542 1541 1540 1539 1538 1537 1536 1534 1533 1532 1532 1531 1531 1530 1529 1530 1529 1529 1530
1539 1539 1539 1540 1539 1540 1540 1540 1540 1541 1541 1541 1541 1542 1542 1542 1542 1541 1541 1540 1540 1539 1538 1537 1536 1535 1533 1532 1531 1530 1530 1529 1528 1527 1527 1527 1527 1527
1539 1538 1538 1538 1538 1538 1539 1539 1539 1539 1540 1540 1540 1541 1541 1541 1541 1540 1540 1540 1539 1538 1538 1536 1536 1534 1533 1532 1530 1529 1528 1527 1527 1526 1526 1526 1525 1525
1538 1538 1538 1538 1538 1538 1538 1538 1539 1539 1539 1539 1539 1540 1540 1539 1539 1539 1539 1539 1538 1538 1537 1536 1535 1534 1533 1531 1530 1529 1528 1526 1525 1525 1525 1524 1524 1524
1539 1538 1538 1538 1539 1539 1538 1539 1539 1538 1538 1538 1538 1538 1539 1539 1539 1539 1539 1538 1537 1538 1537 1536 1535 1534 1533 1532 1531 1529 1528 1527 1526 1525 1524 1524 1523 1522
1540 1539 1539 1539 1540 1540 1539 1539 1539 1538 1539 1538 1538 1538 1538 1539 1539 1538 1538 1537 1537 1537 1537 1536 1535 1534 1533 1532 1531 1530 1528 1527 1526 1525 1524 1524 1523 1522
1541 1540 1540 1540 1541 1541 1540 1540 1539 1539 1539 1538 1538 1538 1539 1539 1538 1538 1538 1538 1537 1537 1536 1535 1535 1534 1533 1532 1531 1530 1529 1527 1526 1525 1524 1523 1523 1522
1543 1543 1542 1542 1542 1542 1541 1540 1540 1540 1540 1539 1539 1539 1539 1539 1539 1538 1538 1537 1536 1536 1536 1535 1534 1533 1533 1532 1531 1530 1528 1527 1526 1525 1524 1523 1522 1521
1544 1544 1544 1544 1544 1544 1543 1542 1541 1542 1541 1541 1541 1540 1540 1539 1539 1538 1538 1537 1536 1536 1536 1535 1534 1533 1532 1532 1531 1530 1529 1527 1526 1525 1524 1522 1521 1520
1546 1546 1546 1546 1545 1545 1544 1544 1543 1543 1543 1542 1542 1542 1541 1540 1540 1539 1538 1538 1537 1536 1536 1535 1534 1533 1532 1532 1531 1530 1529 1527 1526 1525 1523 1522 1521 1519
1547 1548 1548 1548 1547 1547 1546 1546 1545 1545 1545 1544 1543 1543 1542 1541 1540 1540 1539 1538 1537 1537 1536 1535 1534 1533 1532 1531 1530 1529 1528 1527 1525 1524 1523 1521 1520 1519
1549 1549 1549 1549 1549 1548 1548 1547 1547 1547 1546 1545 1545 1544 1543 1543 1542 1541 1540 1539 1538 1537 1536 1535 1534 1533 1532 1531 1530 1529 1527 1526 1525 1523 1522 1520 1519 1517
1551 1551 1551 1551 1550 1550 1549 1549 1548 1548 1547 1547 1546 1546 1545 1544 1543 1542 1541 1540 1538 1537 1536 1535 1534 1533 1532 1531 1529 1528 1527 1525 1524 1522 1521 1519 1518 1516
1553 1552 1552 1552 1551 1551 1550 1550 1550 1549 1548 1548 1547 1546 1546 1544 1543 1542 1541 1540 1539 1537 1536 1535 1534 1533 1531 1530 1529 1527 1526 1524 1523 1521 1519 1518 1516 1515
1554 1553 1553 1553 1552 1552 1552 1551 1550 1550 1549 1549 1548 1547 1546 1545 1544 1543 1542 1541 1539 1538 1536 1534 1533 1532 1531 1529 1529 1526 1525 1523 1521 1520 1518 1516 1514 1513
1555 1554 1554 1554 1554 1553 1553 1552 1551 1550 1550 1549 1548 1547 1546 1545 1544 1543 1542 1540 1539 1538 1536 1535 1533 1531 1530 1528 1527 1526 1524 1521 1520 1518 1517 1515 1513 1511
1555 1555 1555 1555 1554 1554 1553 1552 1552 1551 1550 1549 1548 1547 1546 1545 1544 1543 1541 1540 1539 1537 1535 1534 1532 1531 1529 1528 1526 1524 1522 1520 1518 1516 1515 1513 1512 1510
1555 1555 1555 1555 1554 1554 1553 1552 1551 1550 1550 1549 1548 1547 1546 1544 1543 1542 1541 1539 1538 1536 1534 1533 1531 1530 1528 1526 1524 1522 1520 1519 1517 1515 1513 1511 1509 1508
1556 1555 1555 1555 1554 1554 1553 1552 1551 1550 1549 1548 1547 1546 1545 1543 1542 1540 1539 1538 1536 1535 1533 1531 1530 1528 1526 1524 1522 1520 1518 1517 1515 1513 1512 1510 1508 1506
1556 1555 1555 1555 1554 1553 1552 1551 1550 1549 1548 1547 1546 1545 1544 1542 1541 1539 1538 1536 1535 1533 1531 1530 1528 1526 1524 1522 1520 1518 1517 1515 1513 1511 1510 1508 1507 1505